Погода в Гамильтоне

Великобритания     55°46′42″N   4°03′18″W
темп.,
°C
ветер,
м/с
пор.,
м/с
влажн.,
%
обл.,
%
осадки,
мм/ч
давл.,
гПа
погр.,
м
16 апреля, пт
пт1601:00+3юв22834 0.0 103229
04:00+2ююв22800 0.0 103218
07:00+2ююв22780 0.0 103139
10:00+8ююз245960 0.0 1031703
13:00+10ююз3452100 0.0 10301548
16:00+11юз3450100 0.0 10291589
19:00+9з3564100 0.0 1029467
22:00+5ююз2376100 0.0 1030106
17 апреля, сб
сб1701:00+4ю1180100 0.0 103018
04:00+3ююв228179 0.0 103023
07:00+3ююв238282 0.0 103060
10:00+8ююз346072 0.0 1029694
13:00+11ююз355159 0.0 10271636
16:00+11ю5554100 0.0 10261481
19:00+9ю4765100 0.1 1025620
22:00+5ююв3576100 0.0 1025152
18 апреля, вс
вс1801:00+5ююв3878100 0.0 1024253
04:00+5ю2779100 0.0 1023398
07:00+4ююв4994100 1.3 1023620
10:00+4ююв3995100 0.5 1023595
13:00+5ююв4995100 0.8 1023620
16:00+5ююв3993100 0.1 1022604
19:00+5ююв3892100 0.1 1023538
22:00+5юв2692100 0.0 1023293
19 апреля, пн
пн1901:00+5юв2591100 0.0 1022221
04:00+5ююв2489100 0.0 1021124
07:00+5юв2689100 0.0 1020259
10:00+8ю4782100 0.0 1019638
13:00+10ююз5661100 0.0 10191343
16:00+10ююз3568100 0.0 10171146
19:00+8юз1380100 0.2 1018224
22:00+6зюз1291100 0.4 1018130
20 апреля, вт
вт2001:00+6ююв2495100 2.2 1017393
04:00+5ююз2495100 1.9 1016906
07:00+5юз1496100 3.9 1015825
10:00+6сз3592100 0.5 1016736
13:00+5ссв5894100 1.3 1017741
16:00+7ссв367881 0.8 1017937
19:00+7св377980 1.6 1018465
22:00+3в229459 0.4 102033